[[{"header":{"parameterUnit":"m.s-1","parameterCategory":1,"la1":30.2991,"la2":30.254,"lo1":-89.0895,"lo2":-89.0444,"dy":0.0017,"dx":0.0017,"nx":28,"ny":28,"refTime":"2025-08-05T03:00:00:Z","depth":0,"parameterNumber":2,"parameterNumberName":"U-component_of_WINDS"},"data":[0,0,0,0,0,0,0,0,0,0,0,0,0,0,0,0,0,0,0,0,0,0,0,0,0,0,0,0,0,0,0,0,0,0,0,0,0,0,0,0,0,0,0,0,0,0,0,0,0,0,0,0,0,0,0,0,0,0,1.5303,1.5303,0,1.532,1.5321,1.5321,1.5249,1.5247,1.5245,1.5243,1.5263,1.5265,1.5268,0,0,0,0,0,0,0,0,0,0,0,0,0,1.5208,1.521,1.5303,1.5303,1.5303,1.532,1.5321,1.5321,1.5249,1.5247,1.5244,1.5242,1.5262,1.5265,1.5268,0,0,0,0,0,0,0,0,0,0,0,0,0,1.524,1.5211,1.5303,1.527,1.5267,1.532,1.5321,1.5321,1.525,1.5247,1.5243,1.524,1.5261,1.5265,1.5268,1.5356,0,0,1.528,1.5282,0,0,0,0,0,0,0,0,1.5238,1.5243,1.5274,1.5272,1.5269,1.5279,1.5294,1.5333,1.5251,1.5256,1.5242,1.5239,1.5271,1.5274,1.5284,1.5357,1.5357,1.528,1.5283,1.5284,1.5285,0,0,0,0,0,0,0,1.5236,1.5242,1.531,1.5275,1.5272,1.5254,1.5255,1.5301,1.5281,1.5256,1.525,1.5253,1.5269,1.5281,1.5284,1.5358,1.528,1.5284,1.5286,1.5287,1.55,1.5503,0,0,0,0,0,0,1.5238,1.5241,1.5309,1.531,1.5245,1.5258,1.5259,1.5279,1.5281,1.5278,1.5256,1.525,1.5276,1.528,1.5284,1.5385,1.5284,1.5288,1.529,1.5497,1.5501,1.5504,0,0,0,0,0,0,1.5236,1.5245,1.5309,1.5274,1.5281,1.5263,1.5286,1.5281,1.5293,1.5281,1.5277,1.5272,1.5273,1.5279,1.5338,1.5384,1.5289,1.5293,1.5493,1.5498,1.5503,1.5587,0,0,0,0,0,0,1.5234,1.5244,1.5277,1.5275,1.5283,1.5362,1.5289,1.5284,1.5299,1.5291,1.5295,1.5292,1.5271,1.5332,1.5341,1.5388,1.5296,1.5488,1.5495,1.5501,1.558,1.5595,1.5607,0,0,0,0,0,1.5231,1.5302,1.5279,1.5288,1.5324,1.5364,1.5369,1.5343,1.5303,1.5336,1.5328,1.5292,1.5378,1.5339,1.5349,1.5397,1.5485,1.5493,1.5501,1.5574,1.5592,1.5607,0,0,0,0,0,0,1.5311,1.5301,1.5276,1.5349,1.5358,1.5352,1.5393,1.5363,1.5384,1.5376,1.5343,1.5345,1.5409,1.5409,1.5365,1.548,1.5425,1.5435,1.5478,1.5494,1.5507,1.5506,1.5299,0,0,0,0,0,1.5337,1.537,1.536,1.5425,1.5431,1.5411,1.5428,1.5407,1.5415,1.5419,1.5416,1.5426,1.5455,1.5475,1.5501,1.558,1.5579,1.5618,1.5631,1.5642,1.5651,1.5691,1.5708,1.5529,1.5529,1.5529,0,0,1.5391,1.539,1.5413,1.5441,1.5446,1.5481,1.5415,1.5456,1.5481,1.5426,1.548,1.5478,1.5487,1.5555,1.5586,1.5558,1.57,1.5652,1.5661,1.5664,1.5701,1.5718,1.5733,1.5535,1.5534,1.5533,0,0,1.5508,1.5511,1.5564,1.557,1.5577,1.5563,1.5576,1.5575,1.5571,1.5624,1.5583,1.5613,1.5664,1.5672,1.5682,1.58,1.5767,1.5809,1.5879,1.5918,1.5932,1.5945,1.5985,1.6,1.5818,1.5819,1.5819,0,1.5575,1.5626,1.5596,1.5638,1.5651,1.5601,1.5654,1.5661,1.5678,1.5687,1.5656,1.5717,1.572,1.5789,1.5817,1.5828,1.5841,1.5809,1.5933,1.5945,1.5956,1.5994,1.6009,1.5824,1.5823,1.5822,1.5822,0,1.5706,1.5742,1.5785,1.5799,1.5817,1.5865,1.5842,1.5864,1.5841,1.5831,1.5885,1.5887,1.5911,1.5926,1.5905,1.5992,1.5974,1.5938,1.5882,1.5978,1.6013,1.6028,1.5831,1.5829,1.5827,1.5826,0,0,1.5875,1.5871,1.5887,1.5892,1.5896,1.5923,1.5968,1.5991,1.601,1.6022,1.6059,1.6102,1.6068,1.6081,1.606,1.6095,1.6185,1.6054,1.6054,1.6077,1.6279,1.6305,1.6322,1.6164,1.6166,1.6168,1.6277,0,1.5988,1.6064,1.6037,1.6115,1.6147,1.6099,1.6138,1.6145,1.6136,1.6162,1.6152,1.6183,1.6137,1.6144,1.6176,1.6168,1.6225,1.6159,1.6197,1.6198,1.6195,1.6341,1.6369,1.6472,1.6291,1.6294,1.6295,0,1.613,1.6146,1.6227,1.6223,1.6235,1.6271,1.6288,1.6314,1.632,1.6311,1.6324,1.6295,1.6339,1.6283,1.6342,1.6298,1.6311,1.6309,1.6313,1.6314,1.6252,1.6345,1.6504,1.6519,1.6317,1.6315,1.6314,0,1.6242,1.6285,1.6338,1.6344,1.6341,1.6367,1.6367,1.637,1.6385,1.6401,1.641,1.6431,1.6443,1.646,1.6437,1.6399,1.65,1.6442,1.6493,1.6493,1.6516,1.6514,1.6678,1.6527,1.6527,1.6526,1.6526,0,1.6371,1.6421,1.6388,1.642,1.6475,1.6444,1.65,1.6495,1.6497,1.6528,1.6489,1.6518,1.6487,1.6514,1.6497,1.6548,1.6554,1.6547,1.6542,1.655,1.6551,1.6558,1.655,1.653,1.6529,1.6529,1.6528,0,1.6506,1.6485,1.6539,1.6532,1.6531,1.6572,1.6565,1.6595,1.6582,1.6622,1.6629,1.661,1.6639,1.6619,1.6649,1.6637,1.6703,1.6688,1.6701,1.6696,1.6748,1.6743,1.692,1.6941,1.6778,1.678,1.6781,0,1.6588,1.6626,1.6621,1.6638,1.664,1.6669,1.6683,1.6654,1.6671,1.6679,1.6707,1.6733,1.6752,1.68,1.679,1.6812,1.6797,1.6857,1.68,1.6806,1.6796,1.6793,1.6796,1.6869,1.6871,1.6872,1.6874,0,1.6736,1.6724,1.6746,1.6764,1.6781,1.6794,1.6804,1.6821,1.6791,1.6812,1.684,1.6855,1.6884,1.6909,1.6927,1.6927,1.6895,1.6892,1.6904,1.6913,1.6918,1.6914,1.6731,1.6888,1.6886,1.6885,1.6885,1.6884,1.6846,1.6877,1.6878,1.6903,1.6907,1.6917,1.6943,1.6934,1.6957,1.6977,1.6959,1.6993,1.6996,1.7017,1.7021,1.7047,1.7022,1.7041,1.7045,1.705,1.7056,1.6914,1.705,1.705,1.7049,1.7049,1.7049,0,1.6991,1.6989,1.7012,1.7026,1.7046,1.7013,1.7022,1.7041,1.7071,1.7076,1.7095,1.7127,1.7151,1.7142,1.7163,1.7186,1.7172,1.7192,1.719,1.719,1.7078,1.7064,1.7203,1.7203,1.7203,1.7203,1.7203,1.7203,1.7069,1.7118,1.7105,1.7155,1.7153,1.7185,1.7192,1.7201,1.7205,1.7242,1.7261,1.7255,1.7254,1.7274,1.7295,1.7291,1.7301,1.7326,1.7318,1.7213,1.7198,1.7183,1.717,1.7329,1.7329,1.7427,1.7428,1.7428]},{"header":{"parameterUnit":"m.s-1","parameterCategory":1,"la1":30.2991,"la2":30.254,"lo1":-89.0895,"lo2":-89.0444,"dy":0.0017,"dx":0.0017,"nx":28,"ny":28,"refTime":"2025-08-05T03:00:00:Z","depth":0,"parameterNumber":3,"parameterNumberName":"V-component_of_WINDS"},"data":[0,0,0,0,0,0,0,0,0,0,0,0,0,0,0,0,0,0,0,0,0,0,0,0,0,0,0,0,0,0,0,0,0,0,0,0,0,0,0,0,0,0,0,0,0,0,0,0,0,0,0,0,0,0,0,0,0,0,0.2236,0.2237,0,0.2254,0.2255,0.2255,0.225,0.225,0.225,0.2249,0.2267,0.2268,0.2268,0,0,0,0,0,0,0,0,0,0,0,0,0,0.2197,0.2198,0.2236,0.2237,0.2237,0.2254,0.2255,0.2255,0.225,0.225,0.225,0.2249,0.2267,0.2268,0.2268,0,0,0,0,0,0,0,0,0,0,0,0,0,0.2214,0.2198,0.2236,0.2237,0.2237,0.2254,0.2255,0.2255,0.225,0.225,0.2249,0.2249,0.2266,0.2267,0.2269,0.2287,0,0,0.2272,0.2273,0,0,0,0,0,0,0,0,0.2213,0.2216,0.2236,0.2237,0.2237,0.225,0.2247,0.2266,0.2251,0.2245,0.2249,0.2249,0.2261,0.2263,0.2268,0.2287,0.2288,0.2272,0.2273,0.2274,0.2274,0,0,0,0,0,0,0,0.2212,0.2215,0.2244,0.2237,0.2237,0.2236,0.2238,0.2251,0.2256,0.2246,0.2245,0.2248,0.2262,0.2266,0.2268,0.2288,0.2272,0.2273,0.2274,0.2275,0.2324,0.2324,0,0,0,0,0,0,0.2211,0.2214,0.2243,0.2244,0.2224,0.2237,0.2239,0.2246,0.2256,0.2257,0.2248,0.2247,0.2265,0.2267,0.2269,0.229,0.2274,0.2275,0.2275,0.2323,0.2324,0.2324,0,0,0,0,0,0,0.221,0.2214,0.2242,0.2229,0.2233,0.2238,0.2246,0.2247,0.2252,0.2258,0.2259,0.2252,0.2264,0.2267,0.2282,0.2291,0.2275,0.2276,0.2322,0.2323,0.2324,0.2334,0,0,0,0,0,0,0.2209,0.2213,0.2221,0.2229,0.2233,0.2256,0.2247,0.2247,0.2254,0.2253,0.2262,0.2263,0.2264,0.228,0.2283,0.2292,0.2277,0.2322,0.2323,0.2324,0.2333,0.2335,0.2337,0,0,0,0,0,0.2208,0.2222,0.2221,0.2224,0.2243,0.2257,0.2259,0.226,0.2255,0.2262,0.2266,0.2262,0.2289,0.2282,0.2285,0.2295,0.2321,0.2323,0.2324,0.2332,0.2335,0.2337,0,0,0,0,0,0,0.2214,0.2224,0.2222,0.224,0.2248,0.2256,0.2265,0.2263,0.2272,0.2271,0.2272,0.2274,0.229,0.2294,0.2285,0.2313,0.2304,0.2306,0.231,0.2312,0.2314,0.2313,0.2278,0,0,0,0,0,0.2218,0.2229,0.2236,0.2252,0.2255,0.2259,0.2266,0.2266,0.2274,0.2277,0.2282,0.2289,0.2299,0.2306,0.2315,0.2333,0.2335,0.2341,0.2343,0.2345,0.2347,0.2357,0.236,0.2329,0.2329,0.2329,0,0,0.2226,0.2232,0.2239,0.2253,0.2259,0.227,0.2262,0.2274,0.2282,0.2278,0.2294,0.2297,0.2305,0.2322,0.233,0.2326,0.2356,0.2347,0.2348,0.2349,0.2359,0.2362,0.2364,0.233,0.233,0.2329,0,0,0.2245,0.2251,0.2265,0.2271,0.228,0.2282,0.2285,0.2294,0.2296,0.2311,0.2309,0.2318,0.2335,0.2341,0.2347,0.2368,0.2366,0.2371,0.2382,0.2392,0.2394,0.2396,0.2404,0.2407,0.2373,0.2373,0.2373,0,0.2254,0.2271,0.2272,0.2284,0.2291,0.2287,0.2301,0.2307,0.2318,0.2322,0.2318,0.2339,0.2345,0.2363,0.2368,0.2372,0.2376,0.237,0.2394,0.2396,0.2398,0.2406,0.2409,0.2373,0.2373,0.2373,0.2373,0,0.2281,0.2292,0.2302,0.2314,0.2321,0.2334,0.2336,0.2344,0.2343,0.2346,0.2361,0.2367,0.2378,0.2382,0.2382,0.24,0.2398,0.2393,0.2385,0.2402,0.2409,0.2412,0.2374,0.2374,0.2374,0.2374,0,0,0.2306,0.2318,0.2321,0.2327,0.2336,0.2345,0.2357,0.2368,0.2374,0.2382,0.2393,0.2407,0.2403,0.2409,0.2409,0.2417,0.2434,0.2412,0.2412,0.2416,0.2456,0.246,0.2463,0.2433,0.2433,0.2434,0.2455,0,0.2327,0.235,0.2351,0.2371,0.2382,0.2379,0.239,0.2396,0.2399,0.2408,0.2411,0.2422,0.2415,0.2419,0.2427,0.2431,0.2442,0.2429,0.2443,0.2443,0.2441,0.2467,0.2471,0.2491,0.2458,0.2458,0.2459,0,0.2355,0.2364,0.2385,0.2393,0.2398,0.2408,0.2417,0.2426,0.2434,0.2435,0.2442,0.244,0.2453,0.2444,0.2461,0.2452,0.2457,0.246,0.2461,0.2462,0.2452,0.247,0.2497,0.2501,0.2463,0.2463,0.2462,0,0.2372,0.2389,0.2404,0.2409,0.2418,0.2425,0.2429,0.2436,0.2442,0.2451,0.2455,0.2464,0.247,0.2477,0.2479,0.2472,0.2496,0.2487,0.2498,0.2498,0.2503,0.2503,0.2533,0.2506,0.2506,0.2506,0.2506,0,0.2396,0.2409,0.2412,0.2422,0.2436,0.2437,0.2452,0.2455,0.2461,0.2471,0.2468,0.2478,0.2478,0.2488,0.2489,0.2503,0.2505,0.2507,0.2507,0.2508,0.2507,0.2512,0.2511,0.2506,0.2506,0.2506,0.2506,0,0.2418,0.242,0.2437,0.2444,0.2446,0.2457,0.2463,0.2472,0.2474,0.2486,0.2489,0.2493,0.2504,0.2506,0.2518,0.2519,0.2536,0.2535,0.2534,0.2534,0.2545,0.2544,0.2579,0.2583,0.2553,0.2553,0.2553,0,0.2433,0.2443,0.2452,0.2458,0.2463,0.2473,0.248,0.248,0.2487,0.2496,0.2504,0.2515,0.2523,0.2541,0.2544,0.2554,0.2553,0.2565,0.2555,0.2555,0.2554,0.2554,0.2555,0.2567,0.2567,0.2567,0.2568,0,0.246,0.2461,0.2471,0.2481,0.2489,0.2496,0.2504,0.2509,0.2511,0.2518,0.253,0.2536,0.2549,0.256,0.257,0.2573,0.2571,0.2571,0.2574,0.2575,0.2574,0.2575,0.254,0.257,0.257,0.257,0.257,0.2569,0.248,0.2489,0.2496,0.2507,0.2513,0.252,0.2528,0.2532,0.2541,0.2552,0.2551,0.2564,0.2571,0.2583,0.2588,0.2597,0.2594,0.2598,0.2599,0.26,0.2602,0.2572,0.2599,0.2599,0.2599,0.2599,0.2599,0,0.2508,0.2512,0.2522,0.2532,0.2541,0.2537,0.2545,0.2552,0.2564,0.257,0.2579,0.2591,0.2602,0.2606,0.2616,0.2623,0.2622,0.2625,0.2625,0.2626,0.2604,0.2601,0.2626,0.2626,0.2626,0.2626,0.2626,0.2626,0.2523,0.2538,0.254,0.2557,0.2562,0.2574,0.2579,0.2585,0.259,0.2605,0.2613,0.2616,0.2622,0.2632,0.2641,0.2642,0.2646,0.265,0.2651,0.263,0.2628,0.2625,0.2622,0.2651,0.2651,0.2672,0.2672,0.2672]}]]